Regional Weather Roundup
Issued by NWS Newport/Morehead, NC

Current Version | Previous Version | Text Only | Print | Product List | Glossary On
Versions: 1 2 3 4 5 6 7 8 9 10 11 12 13 14 15 16 17 18 19 20 21 22 23 24 25 26 27 28 29 30 31 32 33 34 35 36 37 38 39 40 41 42 43 44 45 46 47 48 49 50
502
ASUS42 KMHX 191625
RWRMHX
WEATHER ROUNDUP FOR EASTERN NORTH CAROLINA
NATIONAL WEATHER SERVICE NEWPORT/MOREHEAD CITY NC
1100 AM EST SUN FEB 19 2017

NOTE: "FAIR" INDICATES FEW OR NO CLOUDS BELOW 12,000 FEET
WITH NO SIGNIFICANT WEATHER AND/OR OBSTRUCTIONS TO VISIBILITY

NCZ015>017-031-032-045>047-102-103-191700-
NORTH COAST

CITY           SKY/WX    TMP DP  RH WIND       PRES   REMARKS
EDENTON        SUNNY     66  45  46 NW5       29.94R
ELIZABETH CITY SUNNY     65  44  46 NW6       29.92R
KITTY HAWK     NOT AVBL
MANTEO         MOSUNNY   60  44  57 NW7       29.94R

$$

NCZ045>047-081-094-103-104-191700-
CENTRAL COAST

CITY           SKY/WX    TMP DP  RH WIND       PRES   REMARKS
FRISCO         CLOUDY    59  46  62 W7        29.94S HAZE

$$

NCZ095-097-098-100-101-191700-
SOUTHERN COAST

CITY           SKY/WX    TMP DP  RH WIND       PRES   REMARKS
BEAUFORT       MOSUNNY   64  45  49 W6        29.95R
CEDAR ISLAND   NOT AVBL
JACKSONVILLE   CLOUDY    63  47  55 NW10      29.97S
PINEY ISLAND   MOSUNNY  N/A N/A N/A W8        29.94S
WILMINGTON     SUNNY     64  47  53 W12       29.99S


$$

NCZ011>013-027>030-043-044-078>080-089-090>093-098-191700-
COASTAL PLAIN

CITY           SKY/WX    TMP DP  RH WIND       PRES   REMARKS
AHOSKIE          N/A     64  42  44 N5        29.93F
CLINTON        SUNNY     65  46  51 N5        29.98F
ELIZABETHTOWN  SUNNY     64  46  50 NW6       29.99F
GOLDSBORO      SUNNY     66  41  40 NW9       29.95R
GREENVILLE     SUNNY     68  41  37 NW3       29.97S
HAVELOCK       MOSUNNY   66  44  45 NW10      29.95S
KENANSVILLE    NOT AVBL
KINSTON        SUNNY     66  41  39 CALM      29.97R
NEW BERN       CLOUDY    65  46  50 W9        29.97R
RICHLANDS      CLOUDY    62  46  55 W8        29.99R
ROCKY MOUNT    SUNNY     66  43  43 NW9       29.96S
WASHINGTON     SUNNY     67  43  41 W8        29.95S
WHITEVILLE     SUNNY     64  47  54 NW3       30.00F

$$

AMZ130-135-150-152-154-156-158-170-250-252-270-ANZ085-086-088-633-658-670-191700-
MARINE OBSERVATIONS

STATION/POSITION TIME  TEMP    WIND        PRES    WAVE   SWELL
                       AIR SEA DIR/SP/G            HT/PER HT/PER
                 (UTC) (F)     (DEG/KT/KT) (MB)    (FT/S) (FT/S)
CHESAPEAKE LIGHT NOT AVBL
64 E VA BEACH    1550   52 51  250/  6/  6 1012.7    3/ 6   2/ 6
DUCK             1600   59 47  220/  3/  4 1012.9
2 E DUCK         1600      49                N/A     1/10
OREGON INLET     1600   53 51  190/  6/  9 1013.7
13E OREGON INLT  NOT AVBL
HATTERAS CG      1600   56 56  270/  9/ 11 1013.4
DIAMOND BUOY     1550   60 67  300/  8/ 10 1013.7    2/ 7   2/ 7
CAPE LOOKOUT     1600   57     250/ 14/ 15 1014.2
BEAUFORT LAB     1600   63 51  270/  2/  5 1013.3
30 SE NEW RVR IN 1608   58     290/ 12/ 16 1015.2
30 SE NEW RVR IN 1543      65                N/A     3/ 3
27 SE WRIGHTSVLE 1608   57 61  280/ 14/ 19 1014.4
5 SE WRIGHTSVLE  1608   58 56  300/ 10/ 14 1015.0
225 S CAPE HAT   1550   69 71  180/ 14/ 16 1014.9    5/ 6   3/10
41 SE CHARLESTON 1550   61 68  270/ 10/ 12 1016.3    2/ 5   2/ 5

$$




USA.gov is the U.S. government's official web portal to all federal, state and local government web resources and services.